When you browse on this site, cookies collect data to enhance your experience and personalize the content and advertising you see.
Visit our Privacy Policy to learn more. By continuing to use the site, you agree to this use of cookies and data.
  • In Österreich
  • Länderverzeichnis
  • Für 7 Tage
  • Wassertemperatur
  • Satellitenkarten
  • Wetterkarte
  • News
  • Widgets
  • user-avatar
    Anmelden

    Stündliche Wetter Molepolole

    Heute, 9 Dezember, Sonntag

    Zeit Temperatur Niederschläge Wind Luftdruck Luftfeuchtigkeit
    00:00 +28°C° 0 mm 3 m/S 661 mmHg 31%
    01:00 +27°C° 0 mm 4 m/S 661 mmHg 33%
    02:00 +25°C° 0 mm 3 m/S 661 mmHg 41%
    03:00 +24°C° 0 mm 3 m/S 661 mmHg 45%
    04:00 +24°C° 0 mm 3 m/S 661 mmHg 49%
    05:00 +22°C° 0 mm 3 m/S 661 mmHg 53%
    06:00 +24°C° 0.2 mm 3 m/S 661 mmHg 54%
    07:00 +25°C° 0.2 mm 3 m/S 662 mmHg 55%
    08:00 +25°C° 0 mm 5 m/S 662 mmHg 67%
    09:00 +27°C° 0.4 mm 4 m/S 662 mmHg 61%
    10:00 +28°C° 0.4 mm 4 m/S 663 mmHg 54%
    11:00 +30°C° 0.4 mm 3 m/S 663 mmHg 48%
    12:00 +31°C° 0.2 mm 3 m/S 663 mmHg 42%
    13:00 +32°C° 0.2 mm 2 m/S 663 mmHg 37%
    14:00 +34°C° 0 mm 3 m/S 663 mmHg 27%
    15:00 +34°C° 0.1 mm 3 m/S 663 mmHg 25%
    16:00 +34°C° 0.1 mm 3 m/S 662 mmHg 23%
    17:00 +34°C° 0.1 mm 4 m/S 662 mmHg 21%
    18:00 +32°C° 0 mm 4 m/S 662 mmHg 22%
    19:00 +30°C° 0 mm 3 m/S 662 mmHg 23%
    20:00 +28°C° 0 mm 3 m/S 662 mmHg 25%
    21:00 +27°C° 0.1 mm 3 m/S 662 mmHg 27%
    22:00 +27°C° 0.1 mm 3 m/S 663 mmHg 30%
    23:00 +26°C° 0.1 mm 3 m/S 663 mmHg 32%

    Morgen, 10 Dezember, Montag

    Zeit Temperatur Niederschläge Wind Luftdruck Luftfeuchtigkeit
    00:00 +25°C° 0.1 mm 3 m/S 663 mmHg 38%
    01:00 +24°C° 0.1 mm 2 m/S 663 mmHg 43%
    02:00 +22°C° 0.1 mm 1 m/S 663 mmHg 49%
    03:00 +22°C° 0 mm 1 m/S 663 mmHg 49%
    04:00 +22°C° 0 mm 1 m/S 663 mmHg 50%
    05:00 +21°C° 0 mm 1 m/S 663 mmHg 50%
    06:00 +23°C° 0 mm 1 m/S 664 mmHg 43%
    07:00 +25°C° 0 mm 2 m/S 664 mmHg 36%
    08:00 +26°C° 0 mm 2 m/S 665 mmHg 29%
    09:00 +28°C° 0 mm 2 m/S 665 mmHg 27%
    10:00 +30°C° 0 mm 2 m/S 665 mmHg 25%
    11:00 +31°C° 0 mm 2 m/S 666 mmHg 22%
    12:00 +32°C° 0 mm 2 m/S 665 mmHg 21%
    13:00 +32°C° 0 mm 2 m/S 665 mmHg 21%
    14:00 +32°C° 0 mm 2 m/S 664 mmHg 20%
    15:00 +32°C° 0.4 mm 2 m/S 664 mmHg 21%
    16:00 +33°C° 0.4 mm 3 m/S 663 mmHg 23%
    17:00 +32°C° 0.4 mm 4 m/S 663 mmHg 24%
    18:00 +30°C° 0 mm 3 m/S 662 mmHg 29%
    19:00 +28°C° 0 mm 3 m/S 662 mmHg 34%
    20:00 +26°C° 0 mm 2 m/S 662 mmHg 39%
    21:00 +25°C° 0 mm 2 m/S 663 mmHg 43%
    22:00 +24°C° 0 mm 2 m/S 663 mmHg 47%
    23:00 +22°C° 0 mm 3 m/S 664 mmHg 52%

    übermorgen, 11 Dezember, Dienstag

    Zeit Temperatur Niederschläge Wind Luftdruck Luftfeuchtigkeit
    00:00 +22°C° 0 mm 4 m/S 664 mmHg 57%
    01:00 +21°C° 0 mm 5 m/S 664 mmHg 62%
    02:00 +20°C° 0 mm 6 m/S 664 mmHg 68%
    03:00 +20°C° 0 mm 6 m/S 664 mmHg 72%
    04:00 +19°C° 0 mm 5 m/S 664 mmHg 75%
    05:00 +17°C° 0 mm 5 m/S 664 mmHg 79%
    06:00 +19°C° 0 mm 5 m/S 665 mmHg 74%
    07:00 +20°C° 0 mm 5 m/S 666 mmHg 68%
    08:00 +22°C° 0 mm 5 m/S 666 mmHg 62%
    09:00 +25°C° 0 mm 5 m/S 666 mmHg 54%
    10:00 +27°C° 0 mm 5 m/S 667 mmHg 45%
    11:00 +29°C° 0 mm 5 m/S 667 mmHg 37%
    12:00 +30°C° 0 mm 4 m/S 666 mmHg 32%
    13:00 +32°C° 0 mm 4 m/S 666 mmHg 28%
    14:00 +34°C° 0 mm 3 m/S 665 mmHg 23%
    15:00 +34°C° 0 mm 3 m/S 665 mmHg 22%
    16:00 +34°C° 0 mm 3 m/S 664 mmHg 21%
    17:00 +34°C° 0 mm 3 m/S 664 mmHg 20%
    18:00 +31°C° 0 mm 3 m/S 664 mmHg 23%
    19:00 +30°C° 0 mm 4 m/S 664 mmHg 27%
    20:00 +28°C° 0 mm 4 m/S 664 mmHg 30%
    21:00 +27°C° 0 mm 4 m/S 664 mmHg 35%
    22:00 +26°C° 0 mm 4 m/S 665 mmHg 40%
    23:00 +25°C° 0 mm 5 m/S 665 mmHg 45%

    12 Dezember, Mittwoch

    Zeit Temperatur Niederschläge Wind Luftdruck Luftfeuchtigkeit
    00:00 +25°C° 0 mm 4 m/S 665 mmHg 50%
    01:00 +23°C° 0 mm 4 m/S 664 mmHg 55%
    02:00 +22°C° 0 mm 4 m/S 664 mmHg 60%
    03:00 +21°C° 0 mm 3 m/S 664 mmHg 62%
    04:00 +21°C° 0 mm 3 m/S 664 mmHg 64%
    05:00 +20°C° 0 mm 3 m/S 664 mmHg 66%
    06:00 +21°C° 0 mm 4 m/S 665 mmHg 62%
    07:00 +23°C° 0 mm 4 m/S 665 mmHg 58%
    08:00 +25°C° 0 mm 5 m/S 666 mmHg 54%
    09:00 +27°C° 0 mm 5 m/S 666 mmHg 46%
    10:00 +29°C° 0 mm 4 m/S 667 mmHg 39%
    11:00 +32°C° 0 mm 4 m/S 667 mmHg 31%
    12:00 +34°C° 0 mm 4 m/S 666 mmHg 28%
    13:00 +35°C° 0 mm 3 m/S 666 mmHg 24%
    14:00 +36°C° 0 mm 2 m/S 665 mmHg 20%
    15:00 +36°C° 0 mm 2 m/S 665 mmHg 19%
    16:00 +36°C° 0 mm 2 m/S 664 mmHg 18%
    17:00 +36°C° 0 mm 2 m/S 664 mmHg 17%
    18:00 +35°C° 0 mm 3 m/S 664 mmHg 21%
    19:00 +33°C° 0 mm 3 m/S 664 mmHg 24%
    20:00 +30°C° 0 mm 4 m/S 664 mmHg 27%
    21:00 +30°C° 0 mm 4 m/S 664 mmHg 29%
    22:00 +29°C° 0 mm 4 m/S 664 mmHg 32%
    23:00 +28°C° 0 mm 4 m/S 664 mmHg 35%

    13 Dezember, Donnerstag

    Zeit Temperatur Niederschläge Wind Luftdruck Luftfeuchtigkeit
    00:00 +27°C° 0 mm 3 m/S 664 mmHg 36%
    01:00 +26°C° 0 mm 3 m/S 663 mmHg 38%
    02:00 +26°C° 0 mm 3 m/S 663 mmHg 39%
    03:00 +25°C° 0 mm 2 m/S 663 mmHg 40%
    04:00 +25°C° 0 mm 2 m/S 663 mmHg 40%
    05:00 +25°C° 0 mm 1 m/S 664 mmHg 41%
    06:00 +26°C° 0 mm 1 m/S 665 mmHg 38%
    07:00 +27°C° 0 mm 1 m/S 665 mmHg 35%
    08:00 +29°C° 0 mm 1 m/S 666 mmHg 32%
    09:00 +31°C° 0 mm 1 m/S 667 mmHg 29%
    10:00 +33°C° 0 mm 1 m/S 667 mmHg 25%
    11:00 +36°C° 0 mm 2 m/S 667 mmHg 22%
    12:00 +36°C° 0 mm 1 m/S 667 mmHg 19%
    13:00 +39°C° 0 mm 1 m/S 666 mmHg 17%
    14:00 +37°C° 0 mm 0 m/S 666 mmHg 15%
    15:00 +40°C° 0 mm 1 m/S 665 mmHg 14%
    16:00 +39°C° 0 mm 1 m/S 665 mmHg 14%
    17:00 +39°C° 0 mm 1 m/S 664 mmHg 14%
    18:00 +37°C° 0 mm 1 m/S 664 mmHg 15%
    19:00 +37°C° 0 mm 2 m/S 664 mmHg 16%
    20:00 +35°C° 0 mm 2 m/S 665 mmHg 17%
    21:00 +35°C° 0 mm 3 m/S 665 mmHg 19%
    22:00 +34°C° 0 mm 3 m/S 665 mmHg 21%
    23:00 +33°C° 0 mm 3 m/S 665 mmHg 23%

    14 Dezember, Freitag

    Zeit Temperatur Niederschläge Wind Luftdruck Luftfeuchtigkeit
    00:00 +31°C° 0 mm 3 m/S 665 mmHg 25%
    01:00 +30°C° 0 mm 3 m/S 664 mmHg 28%
    02:00 +30°C° 0 mm 3 m/S 664 mmHg 30%
    03:00 +29°C° 0 mm 3 m/S 665 mmHg 35%
    04:00 +28°C° 0 mm 4 m/S 665 mmHg 39%
    05:00 +27°C° 0 mm 4 m/S 665 mmHg 44%
    06:00 +27°C° 0 mm 5 m/S 666 mmHg 43%
    07:00 +28°C° 0 mm 6 m/S 667 mmHg 42%
    08:00 +28°C° 0 mm 7 m/S 668 mmHg 41%
    09:00 +30°C° 0 mm 7 m/S 668 mmHg 40%
    10:00 +32°C° 0 mm 7 m/S 668 mmHg 38%
    11:00 +33°C° 0 mm 7 m/S 668 mmHg 37%
    12:00 +34°C° 0 mm 6 m/S 668 mmHg 34%
    13:00 +36°C° 0 mm 5 m/S 667 mmHg 31%
    14:00 +37°C° 0 mm 5 m/S 667 mmHg 27%
    15:00 +37°C° 0 mm 5 m/S 666 mmHg 27%
    16:00 +37°C° 0 mm 5 m/S 666 mmHg 26%
    17:00 +37°C° 0 mm 4 m/S 666 mmHg 25%
    18:00 +35°C° 0 mm 5 m/S 666 mmHg 29%
    19:00 +34°C° 0 mm 5 m/S 666 mmHg 32%
    20:00 +32°C° 0 mm 5 m/S 666 mmHg 36%
    21:00 +30°C° 0 mm 5 m/S 666 mmHg 38%
    22:00 +29°C° 0 mm 6 m/S 666 mmHg 40%
    23:00 +28°C° 0 mm 6 m/S 666 mmHg 43%
    Mehr zeigen